FW2916 Weather Reports


Display with metric or nautical units.
time (UTC)temp
F
wind
direction
speed
MPH
gust
MPH
rain 1hr
in
rain 24hr
in
rain mn
in
humidity
%
barometer
mb
20260503060107 44 0 0.0 1.0 0.00 0.00 0.00 75 1017.3
20260503054541 44 0 0.0 0.0 0.00 0.00 0.00 77 1017.5
20260503053039 45 0 0.0 1.0 0.00 0.00 0.00 75 1017.6
20260503051536 44 0 0.0 1.0 0.00 0.00 0.00 75 1017.8
20260503050036 42 0 0.0 0.0 0.00 0.00 0.00 78 1018.0
20260503044542 42 0 0.0 0.0 0.00 0.00 0.00 79 1018.2
20260503043048 43 0 0.0 0.0 0.00 0.00 0.00 79 1018.4
20260503041542 43 0 0.0 0.0 0.00 0.00 0.00 80 1018.4
20260503040049 44 0 0.0 0.0 0.00 0.00 0.00 79 1018.4
20260503034533 45 0 0.0 0.0 0.00 0.00 0.00 77 1018.6
20260503033040 45 0 0.0 0.0 0.00 0.00 0.00 77 1018.7
20260503031540 46 0 0.0 0.0 0.00 0.00 0.00 77 1018.7
20260503030040 47 0 0.0 0.0 0.00 0.00 0.00 72 1018.8
20260503024537 48 0 0.0 0.0 0.00 0.00 0.00 68 1018.8
20260503023035 49 0 0.0 0.0 0.00 0.00 0.00 64 1018.8
20260503021550 49 0 0.0 0.0 0.00 0.00 0.00 62 1018.7
20260503020048 51 0 0.0 0.0 0.00 0.00 0.00 58 1018.8
20260503014541 52 0 0.0 0.0 0.00 0.00 0.00 55 1018.5
20260503013037 54 0 0.0 0.0 0.00 0.00 0.00 51 1018.4
20260503011535 56 0 0.0 1.0 0.00 0.00 0.00 47 1018.4
20260503010043 58 0 0.0 0.0 0.00 0.00 0.00 46 1018.5
20260503004555 59 0 0.0 1.0 0.00 0.00 0.00 42 1018.6
20260503003100 60 0 0.0 2.0 0.00 0.00 0.00 40 1018.6
20260503001538 61 0 0.0 4.0 0.00 0.00 0.00 42 1018.6
20260503000035 61 0 0.0 3.0 0.00 0.00 0.00 39 1018.6
20260502234541 62 0 1.0 2.0 0.00 0.00 0.00 37 1018.5
20260502233040 64 323 0.0 2.0 0.00 0.00 0.00 38 1018.7
20260502231536 65 274 1.0 5.0 0.00 0.00 0.00 37 1018.9
20260502230036 66 0 0.0 2.0 0.00 0.00 0.00 35 1018.8
20260502224541 67 0 1.0 3.0 0.00 0.00 0.00 38 1019.0
20260502223041 67 0 0.0 1.0 0.00 0.00 0.00 34 1019.1
20260502221535 66 234 1.0 3.0 0.00 0.00 0.00 39 1019.2
20260502220037 66 0 0.0 2.0 0.00 0.00 0.00 36 1019.3
20260502214543 66 0 0.0 2.0 0.00 0.00 0.00 38 1019.4
20260502213058 65 120 1.0 5.0 0.00 0.00 0.00 38 1019.4
20260502211538 66 304 0.0 2.0 0.00 0.00 0.00 40 1019.6
20260502210037 65 239 1.0 3.0 0.00 0.00 0.00 37 1019.8
20260502204537 63 150 2.0 5.0 0.00 0.00 0.00 37 1019.8
20260502203042 63 7 2.0 6.0 0.00 0.00 0.00 36 1020.0
20260502201540 65 20 2.0 6.0 0.00 0.00 0.00 37 1020.1
20260502200055 65 0 0.0 3.0 0.00 0.00 0.00 38 1020.4
20260502194543 64 328 0.0 3.0 0.00 0.00 0.00 48 1020.4
20260502193042 65 0 0.0 4.0 0.00 0.00 0.00 43 1020.5
20260502191543 64 0 1.0 3.0 0.00 0.00 0.00 37 1020.6
20260502190043 62 118 2.0 8.0 0.00 0.00 0.00 44 1020.7
20260502184535 63 0 0.0 6.0 0.00 0.00 0.00 44 1020.9
20260502183044 63 0 3.0 7.0 0.00 0.00 0.00 43 1021.1
20260502181544 63 314 0.0 7.0 0.00 0.00 0.00 45 1021.3
20260502163036 60 0 0.0 6.0 0.00 0.00 0.00 48 1021.9
20260502161537 59 0 1.0 4.0 0.00 0.00 0.00 45 1021.9
20260502151535 56 40 2.0 5.0 0.00 0.00 0.00 55 1021.9
20260502123034 38 0 0.0 0.0 0.00 0.00 0.00 85 1021.0
20260502121543 37 0 0.0 0.0 0.00 0.00 0.00 86 1020.9
20260502114539 36 0 0.0 0.0 0.00 0.00 0.00 82 1020.5
20260502113046 37 0 0.0 0.0 0.00 0.00 0.00 82 1020.4
20260502111546 35 0 0.0 0.0 0.00 0.00 0.00 86 1020.2
20260502110036 35 0 0.0 0.0 0.00 0.00 0.00 84 1020.2
20260502104542 36 0 0.0 0.0 0.00 0.00 0.00 82 1020.3
20260502103101 37 0 0.0 0.0 0.00 0.00 0.00 81 1020.2
20260502101548 38 0 0.0 0.0 0.00 0.00 0.00 79 1020.0
20260502070035 43 0 0.0 0.0 0.00 0.00 0.00 69 1019.4
20260502064544 43 0 0.0 0.0 0.00 0.00 0.00 70 1019.5